Tracking 35275 objects as of 8-Sep-2026
HD Live streaming from Space Station
objects crossing your sky now

DISKSAT A

Track DISKSAT A now!
10-day predictions


NORAD ID: 67222
Int'l Code: 2025-305D
Launch date: December 18, 2025
Source: United States (US)
Launch site: WALLOPS ISLAND (WLPIS)
Your satellite tracking list
Your tracking list is empty




NASA's NSSDC Master Catalog

Two Line Element Set (TLE):
1 67222U 25305D   26251.28707428  .00009010  00000-0  55393-3 0  9996
2 67222  45.0034   1.6394 0007274 277.5130  82.4920 15.10386142 39878
Source of the keplerian elements: AFSPC